www.pogodaiklimat.ru

Погода и климат >> Архив погоды >> Индия >> Джаркханд >> Ранчи


ПОГОДА в Ранчи

  • Прогноз погоды в Ранчи
  • Монитор погоды в Ранчи

АРХИВ ПОГОДЫ в Ранчи

Время (UTC), дата Ветер
(напр.,м/с)
 
Видим.   Явления Облачность Т
(С)
Тd
(С)
f
(%)
Тe
(С)
Тes
(С)
Комфортность P
(гПа)
Po
(гПа)
Тmin
(С)
Tmax
(С)
R
(мм)
R24
(мм)
S
(см)
18 16.01 штиль 0 2000 м мгла ясно +11.4 +4.3 62 +11 +11 1018.1 942.7
21 16.01 штиль 0 2000 м мгла ясно +10.4 +4.5 67 +10 +10 1017.4 941.7
00 17.01 штиль 0 2000 м мгла ясно +8.0 +4.1 76 +7 +7 1017.2 940.8
03 17.01 штиль 0 2000 м мгла ясно +11.6 +4.0 60 +11 +17 1017.8 942.4 +7.1
06 17.01 З 2 4000 м мгла ясно +22.4 -1.9 20 +21 +34 комфорт 1014.0 941.5
09 17.01 СВ 1 4000 м ясно +23.0 -1.4 20 +22 +29 комфорт 1011.4 939.3
12 17.01 СВ 1 4000 м ясно +20.8 -0.1 25 +22 +22 комфорт 1012.2 939.3 +24.2
15 17.01 штиль 0 2000 м мгла ясно +15.0 +3.9 47 +15 +15 1015.4 1015.0
18 17.01 штиль 0 2000 м мгла ясно +12.4 +5.5 63 +12 +12 1016.3 941.3
21 17.01 штиль 0 2000 м мгла ясно +12.0 +6.0 67 +12 +12 1015.1 940.1
00 18.01 штиль 0 2000 м мгла ясно +8.6 +3.3 69 +8 +8 1016.7 940.7
03 18.01 штиль 0 2000 м мгла ясно +10.6 +4.7 67 +10 +15 1018.4 942.7 +7.6
06 18.01 С 2 4000 м мгла ясно +21.4 +2.3 28 +21 +34 комфорт 1015.2 942.4
09 18.01 СЗ 2 4000 м мгла ясно +24.2 +2.3 24 +23 +29 комфорт 1011.8 939.9
12 18.01 С 1 4000 м мгла ясно +20.2 +3.9 34 +22 +22 комфорт 1012.9 940.0 +24.4
15 18.01 штиль 0 2000 м мгла ясно +15.0 +3.9 47 +15 +15 1016.0 941.4
18 18.01 штиль 0 2000 м мгла ясно +12.6 +3.8 55 +12 +12 1017.6 942.4
21 18.01 штиль 0 2000 м мгла ясно +11.6 +3.8 59 +11 +11 1017.0 941.6
00 19.01 штиль 0 2000 м мгла ясно +9.4 +5.2 75 +9 +9 1017.1 941.7
03 19.01 штиль 0 1000 м дымка ясно +11.0 +5.7 70 +11 +16 1019.9 944.0 +8.0
06 19.01 С 1 4000 м мгла ясно +20.6 +2.2 30 +22 +36 комфорт 1017.0 943.8
09 19.01 Ю 2 4000 м мгла ясно +23.4 -0.7 20 +22 +29 комфорт 1013.1 941.0
12 19.01 штиль 0 4000 м мгла ясно +20.0 +6.3 41 +21 +21 комфорт 1014.4 941.3 +24.4
15 19.01 С 2 4000 м мгла ясно +15.4 +2.8 43 +16 +16 1016.8 942.5
18 19.01 штиль 0 4000 м мгла ясно +13.4 +2.7 48 +13 +13 1017.6 942.7
21 19.01 штиль 0 4000 м мгла ясно +11.0 +4.7 65 +11 +11 1017.8 942.1
00 20.01 штиль 0 2000 м мгла ясно +9.0 +6.1 82 +8 +8 1018.7 942.9
03 20.01 штиль 0 2000 м мгла ясно +13.4 +5.3 58 +13 +19 1019.3 944.2 +8.0
06 20.01 штиль 0 4000 м мгла ясно +22.6 +3.8 29 +23 +38 комфорт 1016.7 944.0
09 20.01 СВ 2 4000 м мгла ясно +24.2 +2.3 24 +23 +29 комфорт 1013.1 941.1
12 20.01 С 1 4000 м мгла ясно +21.0 +2.9 30 +22 +22 комфорт 1014.3 941.3 +25.2
15 20.01 штиль 0 4000 м мгла ясно +16.0 +3.7 44 +16 +16 1016.8 942.5
18 20.01 штиль 0 2000 м мгла ясно +13.8 +3.8 51 +14 +14 1017.6 942.7
21 20.01 штиль 0 2000 м мгла ясно +11.6 +5.5 66 +11 +11 1017.3 941.9
00 21.01 штиль 0 2000 м мгла ясно +10.4 +5.5 72 +10 +10 1017.2 941.7
03 21.01 штиль 0 2000 м мгла ясно +14.2 +3.8 50 +14 +20 1018.5 943.7 +8.8
06 21.01 С 2 4000 м ясно +25.2 +3.5 24 +24 +37 комфорт 1015.4 943.5
09 21.01 С 1 4000 м ясно +26.4 +1.9 20 +25 +32 комфорт 1012.2 940.8
12 21.01 штиль 0 4000 м ясно +22.4 +4.1 30 +22 +22 комфорт 1012.8 940.4 +27.5
15 21.01 штиль 0 4000 м мгла ясно +17.4 +7.1 51 +17 +17 1015.3 941.6
18 21.01 штиль 0 2000 м мгла ясно +14.2 +7.7 65 +14 +14 1016.8 942.2
21 21.01 штиль 0 2000 м мгла ясно +12.2 +7.9 75 +12 +12 1016.7 941.5
00 22.01 штиль 0 2000 м мгла ясно +11.2 +7.7 79 +11 +11 1016.5 941.1
03 22.01 штиль 0 2000 м мгла ясно +16.0 +6.3 53 +16 +22 1017.2 942.9 +10.0
06 22.01 Ю 2 4000 м мгла ясно +26.0 +6.7 29 +26 +38 жарко 1015.2 943.3
09 22.01 Ю 3 4000 м мгла ясно +29.0 +5.0 22 +28 +33 жарко 1011.4 940.5
12 22.01 Ю 2 4000 м мгла ясно +24.0 +10.1 41 +25 +25 комфорт 1012.9 940.8 +29.2
15 22.01 штиль 0 2000 м мгла ясно +18.0 +9.3 57 +18 +18 1016.4 942.3
18 22.01 штиль 0 2000 м мгла ясно +15.2 +9.6 69 +15 +15 1016.6 942.3
21 22.01 штиль 0 2000 м ясно +14.0 +10.4 79 +14 +14 1016.6 941.7
00 23.01 штиль 0 2000 м мгла ясно +13.6 +6.5 62 +13 +13 1015.1 940.6
03 23.01 Ю 2 2000 м мгла ясно +17.2 +10.4 64 +18 +22 1016.3 942.5 +12.0
06 23.01 Ю 3 4000 м мгла ясно +26.0 +9.7 36 +27 +38 жарко 1014.4 942.6
09 23.01 ЮЗ 2 4000 м мгла 3/3 600 м
[Sc]
+28.4 +9.0 30 +28 +33 жарко 1010.9 940.0
12 23.01 Ю 2 4000 м мгла 4/4 600 м
[Sc]
+24.6 +10.5 41 +26 +26 жарко 1011.9 940.0 +31.0

 

Местоположение метеостанции Ранчи (Джаркханд, Индия): широта 23.32 долгота 85.32 высота над уровнем моря 652 м.

В архиве по умолчанию представлена погода в Ранчи за последнюю неделю. Архивные данные за месяц целиком и за предыдущие месяцы, начиная с января 2011 года, Вы можете получить, выбрав интересующий диапазон дат из раскрывающегося списка и нажав кнопку "Ввод!".


*Определитесь, кто Вы:
робот инопланетянин человек

Внимание! Время в таблицах - всемирное. Для получения местного времени необходимо прибавить поправку, которая равна 5.5 ч.

Смотрите также архив погоды в соседних городах и на ближайших метеорологических станциях:

Погода в Чайбасе (Джаркханд, Индия) (100 км)
Погода в Джамшедпуре (Джаркханд, Индия) (104 км)
Погода в Пурулии (Западная Бенгалия, Индия) (112 км)
Погода в Далтонгандже (Джаркханд, Индия) (151 км)
Погода в Гае (Бихар, Индия) (163 км)
Погода в Асансоле (Западная Бенгалия, Индия) (174 км)
Погода в Банкуре (Западная Бенгалия, Индия) (177 км)
Погода в Сундаргархе (Орисса, Индия) (188 км)
Погода в Кендуджхаре (Орисса, Индия) (190 км)
Погода в Джхарсугуде (Орисса, Индия) (201 км)

Пояснения к столбцам:

Ветер - указаны скорость ветра в м/с - средняя за 10 мин, порывы в срок и между сроками (в фигурных скобках) и направление, откуда дует ветер: С - северный, СВ - северо-восточный, В - восточный, ЮВ - юго-восточный, Ю - южный, ЮЗ - юго-западный, З - западный, СЗ - северо-западный.
Видимость - горизонтальная дальность видимости в метрах или километрах. При видимости от 1 до 10 км при отсутствии осадков обычно наблюдается дымка, при ухудшении видимости до 1 км и менее - туман. В сухую погоду видимость может ухудшаться дымом, пылью или мглою.
Явления - указаны атмосферные явления, наблюдавшиеся в срок или в последний час перед сроком; фигурными скобками обозначены явления, наблюдавшиеся между сроками (за 1-3 часа до срока); квадратными скобками обозначены град или гололедные отложения с указанием их диаметра в мм.
Облачность - указаны через наклонную черту общая и нижняя облачность в баллах и высота нижней границы облаков в метрах; квадратными скобками обозначены формы облаков: Ci - перистые, Cs - перисто-слоистые, Cc - перисто-кучевые, Ac - высококучевые, As - высокослоистые, Sc - слоисто-кучевые, Ns - слоисто-дождевые, Cu - кучевые, Cb - кучево-дождевые. Подробнее классификацию облаков см. в Атласе облаков (PDF).
T - Температура воздуха - температура, измеренная на высоте 2 м над землей.
Td - Температура точки росы - температура, при понижении до которой содержащийся в воздухе водяной пар достигнет насыщения.
f - Относительная влажность воздуха - влажноcть воздуха, измеренная на высоте 2 м над землей.
Te - Эффективная температура - температура, которую ощущает одетый по сезону человек в тени. Характеристика душности погоды. При расчете учитывается влияние влажности воздуха и скорости ветра на теплоощущения человека.
Tes - Эффективная температура на солнце - температура, которую ощущает человек, с поправкой на солнечный нагрев. Характеристика знойности погоды. Зависит от высоты солнца над горизонтом, облачности и скорости ветра. Ночью, в пасмурную погоду, а также при ветре 12 м/с и более поправка равна нулю.
P - Атмосферное давление - приведенное к уровню моря атмосферное давление.
Po - Атмосферное давление - измеренное на уровне метеостанции атмосферное давление.
Tmin - Минимальная температура - минимум температуры воздуха на высоте 2 м над землей.
Tmax - Максимальная температура - максимум температуры воздуха на высоте 2 м над землей.
R - Количество осадков - Количество выпавших осадков за период времени, мм. При наведении курсора мыши на число - период времени, за который выпало указанное количество осадков.
R24 - Количество осадков - Количество выпавших осадков за 24 часа, мм.
S - Снежный покров - Высота снежного покрова, см. При наведении курсора мыши на число - состояние снежного покрова и степень покрытия местности в баллах.